Tiempo cada hora Czyste

Hoy, 13 Mayo, Jueves

Tiempo Temperatura Precipitaciones Viento Presión Humedad
00:00 +13°C° 1.8 mm 4 mps 744 mmHg 96%
01:00 +12°C° 0 mm 4 mps 744 mmHg 96%
02:00 +12°C° 0.3 mm 4 mps 744 mmHg 96%
03:00 +12°C° 0.3 mm 3 mps 743 mmHg 96%
04:00 +11°C° 0.3 mm 3 mps 743 mmHg 96%
05:00 +11°C° 0.4 mm 3 mps 743 mmHg 96%
06:00 +12°C° 0.4 mm 3 mps 743 mmHg 97%
07:00 +12°C° 0.4 mm 3 mps 743 mmHg 97%
08:00 +12°C° 0.1 mm 3 mps 742 mmHg 95%
09:00 +13°C° 0.1 mm 3 mps 742 mmHg 93%
10:00 +14°C° 0.1 mm 3 mps 742 mmHg 91%
11:00 +16°C° 0.1 mm 3 mps 742 mmHg 89%
12:00 +16°C° 0.1 mm 2 mps 742 mmHg 86%
13:00 +17°C° 0.1 mm 2 mps 741 mmHg 83%
14:00 +17°C° 0.6 mm 2 mps 741 mmHg 84%
15:00 +17°C° 0.6 mm 2 mps 741 mmHg 84%
16:00 +17°C° 0.6 mm 2 mps 741 mmHg 84%
17:00 +16°C° 0.6 mm 2 mps 741 mmHg 87%
18:00 +16°C° 0.6 mm 3 mps 741 mmHg 90%
19:00 +14°C° 0.6 mm 3 mps 741 mmHg 93%
20:00 +13°C° 0.3 mm 3 mps 741 mmHg 95%
21:00 +13°C° 0.3 mm 3 mps 742 mmHg 96%
22:00 +12°C° 0.3 mm 3 mps 742 mmHg 97%
23:00 +12°C° 0 mm 3 mps 742 mmHg 97%

Mañana, 14 Mayo, Viernes

Tiempo Temperatura Precipitaciones Viento Presión Humedad
00:00 +11°C° 0 mm 3 mps 742 mmHg 97%
01:00 +11°C° 0 mm 3 mps 742 mmHg 96%
02:00 +11°C° 0 mm 3 mps 742 mmHg 96%
03:00 +11°C° 0 mm 3 mps 742 mmHg 97%
04:00 +10°C° 0 mm 3 mps 742 mmHg 97%
05:00 +10°C° 0.2 mm 3 mps 742 mmHg 97%
06:00 +10°C° 0.2 mm 3 mps 743 mmHg 96%
07:00 +10°C° 0.2 mm 4 mps 743 mmHg 96%
08:00 +10°C° 0.2 mm 4 mps 743 mmHg 95%
09:00 +10°C° 0.2 mm 4 mps 743 mmHg 94%
10:00 +10°C° 0.2 mm 4 mps 744 mmHg 93%
11:00 +10°C° 0.2 mm 4 mps 744 mmHg 91%
12:00 +10°C° 0.2 mm 5 mps 744 mmHg 89%
13:00 +10°C° 0.2 mm 5 mps 744 mmHg 87%
14:00 +9°C° 0 mm 5 mps 745 mmHg 87%
15:00 +10°C° 0 mm 4 mps 745 mmHg 86%
16:00 +10°C° 0 mm 4 mps 745 mmHg 86%
17:00 +10°C° 0 mm 4 mps 745 mmHg 87%
18:00 +8°C° 0 mm 4 mps 745 mmHg 88%
19:00 +8°C° 0 mm 4 mps 745 mmHg 90%
20:00 +9°C° 0.1 mm 3 mps 745 mmHg 91%
21:00 +8°C° 0.1 mm 3 mps 746 mmHg 93%
22:00 +8°C° 0.1 mm 3 mps 746 mmHg 95%
23:00 +8°C° 0 mm 3 mps 746 mmHg 95%

Pasado mañana, 15 Mayo, Sábado

Tiempo Temperatura Precipitaciones Viento Presión Humedad
00:00 +7°C° 0 mm 3 mps 746 mmHg 96%
01:00 +7°C° 0 mm 3 mps 746 mmHg 96%
02:00 +6°C° 0 mm 2 mps 746 mmHg 96%
03:00 +6°C° 0 mm 2 mps 746 mmHg 96%
04:00 +6°C° 0 mm 2 mps 746 mmHg 96%
05:00 +7°C° 0 mm 2 mps 747 mmHg 91%
06:00 +9°C° 0 mm 2 mps 747 mmHg 85%
07:00 +12°C° 0 mm 2 mps 747 mmHg 80%
08:00 +13°C° 0 mm 2 mps 747 mmHg 74%
09:00 +14°C° 0 mm 3 mps 747 mmHg 67%
10:00 +17°C° 0 mm 3 mps 746 mmHg 61%
11:00 +18°C° 0.1 mm 3 mps 746 mmHg 57%
12:00 +18°C° 0.1 mm 4 mps 746 mmHg 53%
13:00 +19°C° 0.1 mm 4 mps 746 mmHg 49%
14:00 +19°C° 0 mm 4 mps 746 mmHg 49%
15:00 +19°C° 0 mm 3 mps 745 mmHg 48%
16:00 +18°C° 0 mm 3 mps 745 mmHg 48%
17:00 +17°C° 0.1 mm 3 mps 745 mmHg 57%
18:00 +16°C° 0.1 mm 2 mps 745 mmHg 65%
19:00 +14°C° 0.1 mm 2 mps 745 mmHg 74%
20:00 +13°C° 0.4 mm 2 mps 745 mmHg 80%
21:00 +12°C° 0.4 mm 2 mps 745 mmHg 86%
22:00 +10°C° 0.4 mm 2 mps 745 mmHg 91%
23:00 +10°C° 0.1 mm 2 mps 745 mmHg 91%

16 Mayo, Domingo

Tiempo Temperatura Precipitaciones Viento Presión Humedad
00:00 +10°C° 0.1 mm 2 mps 745 mmHg 90%
01:00 +10°C° 0.1 mm 2 mps 745 mmHg 90%
02:00 +9°C° 0.1 mm 2 mps 745 mmHg 91%
03:00 +9°C° 0.1 mm 3 mps 745 mmHg 93%
04:00 +9°C° 0.1 mm 3 mps 745 mmHg 95%
05:00 +9°C° 0.3 mm 3 mps 745 mmHg 91%
06:00 +10°C° 0.3 mm 4 mps 745 mmHg 88%
07:00 +10°C° 0.3 mm 4 mps 745 mmHg 85%
08:00 +12°C° 0 mm 4 mps 745 mmHg 76%
09:00 +13°C° 0 mm 4 mps 745 mmHg 67%
10:00 +14°C° 0 mm 5 mps 745 mmHg 59%
11:00 +14°C° 0.1 mm 5 mps 745 mmHg 59%
12:00 +14°C° 0.1 mm 5 mps 745 mmHg 59%
13:00 +15°C° 0.1 mm 4 mps 745 mmHg 59%
14:00 +15°C° 0.3 mm 5 mps 745 mmHg 58%
15:00 +15°C° 0.3 mm 5 mps 744 mmHg 57%
16:00 +15°C° 0.3 mm 5 mps 744 mmHg 56%
17:00 +14°C° 0.1 mm 4 mps 744 mmHg 62%
18:00 +13°C° 0.1 mm 3 mps 744 mmHg 67%
19:00 +14°C° 0.1 mm 2 mps 744 mmHg 72%
20:00 +12°C° 0 mm 2 mps 745 mmHg 77%
21:00 +10°C° 0 mm 2 mps 745 mmHg 82%
22:00 +9°C° 0 mm 2 mps 745 mmHg 87%
23:00 +8°C° 0 mm 2 mps 745 mmHg 88%

17 Mayo, Lunes

Tiempo Temperatura Precipitaciones Viento Presión Humedad
00:00 +8°C° 0 mm 2 mps 745 mmHg 89%
01:00 +8°C° 0 mm 2 mps 745 mmHg 90%
02:00 +8°C° 0 mm 2 mps 745 mmHg 90%
03:00 +7°C° 0 mm 2 mps 745 mmHg 91%
04:00 +7°C° 0 mm 2 mps 744 mmHg 91%
05:00 +8°C° 0.1 mm 2 mps 745 mmHg 87%
06:00 +10°C° 0.1 mm 3 mps 745 mmHg 82%
07:00 +11°C° 0.1 mm 3 mps 745 mmHg 78%
08:00 +12°C° 0.1 mm 3 mps 745 mmHg 76%
09:00 +13°C° 0.1 mm 4 mps 745 mmHg 74%
10:00 +13°C° 0.1 mm 4 mps 745 mmHg 72%
11:00 +12°C° 0.4 mm 4 mps 745 mmHg 78%
12:00 +11°C° 0.4 mm 4 mps 745 mmHg 85%
13:00 +10°C° 0.4 mm 4 mps 745 mmHg 91%
14:00 +11°C° 0.3 mm 4 mps 745 mmHg 87%
15:00 +12°C° 0.3 mm 4 mps 745 mmHg 84%
16:00 +12°C° 0.3 mm 4 mps 745 mmHg 80%
17:00 +12°C° 0.2 mm 4 mps 745 mmHg 82%
18:00 +12°C° 0.2 mm 3 mps 745 mmHg 84%
19:00 +11°C° 0.2 mm 3 mps 745 mmHg 87%
20:00 +10°C° 0.2 mm 3 mps 745 mmHg 90%
21:00 +9°C° 0.2 mm 3 mps 745 mmHg 93%
22:00 +9°C° 0.2 mm 3 mps 745 mmHg 95%
23:00 +8°C° 0 mm 3 mps 745 mmHg 96%

18 Mayo, Martes

Tiempo Temperatura Precipitaciones Viento Presión Humedad
00:00 +8°C° 0 mm 3 mps 745 mmHg 96%
01:00 +7°C° 0 mm 2 mps 745 mmHg 97%
02:00 +7°C° 0 mm 2 mps 745 mmHg 97%
03:00 +6°C° 0 mm 2 mps 745 mmHg 97%
04:00 +6°C° 0 mm 2 mps 745 mmHg 97%
05:00 +7°C° 0 mm 2 mps 746 mmHg 92%
06:00 +8°C° 0 mm 3 mps 746 mmHg 88%
07:00 +10°C° 0 mm 3 mps 746 mmHg 83%
08:00 +11°C° 0 mm 3 mps 746 mmHg 76%
09:00 +13°C° 0 mm 3 mps 746 mmHg 68%
10:00 +14°C° 0 mm 3 mps 746 mmHg 61%
11:00 +16°C° 0.3 mm 3 mps 746 mmHg 62%
12:00 +16°C° 0.3 mm 3 mps 746 mmHg 64%
13:00 +15°C° 0.3 mm 4 mps 746 mmHg 65%
14:00 +14°C° 0.3 mm 4 mps 746 mmHg 67%
15:00 +14°C° 0.3 mm 4 mps 746 mmHg 69%
16:00 +14°C° 0.3 mm 4 mps 746 mmHg 71%
17:00 +13°C° 0.3 mm 3 mps 747 mmHg 76%
18:00 +13°C° 0.3 mm 3 mps 747 mmHg 80%
19:00 +12°C° 0.3 mm 3 mps 747 mmHg 84%
20:00 +11°C° 0 mm 3 mps 747 mmHg 88%
21:00 +10°C° 0 mm 3 mps 748 mmHg 92%
22:00 +9°C° 0 mm 2 mps 748 mmHg 96%
23:00 +8°C° 0 mm 3 mps 748 mmHg 96%
Mostrar más

Necesitamos Su Consentimiento

Meteoprog y nuestros Proveedores de Servicios pueden almacenar y acceder a sus datos personales como cookies, identificadores de dispositivo u otras tecnologías similares de su dispositivo y procesar dichos datos para personalizar contenido y anuncios, además de ofrecer funciones de redes sociales y analizar el tráfico.

  • Almacenar y/o acceder a información en su dispositivo

    Se puede almacenar o acceder a cookies, identificadores de dispositivo u otra información de su dispositivo para los fines anteriormente indicados.

  • Anuncios y contenido personalizados, medición de anuncios y contenido, percepciones del público, y desarrollo de productos

    Los anuncios y el contenido pueden personalizarse en base a su perfil. Se pueden añadir más datos para personalizar mejor los anuncios y contenidos. Se puede medir el rendimiento de los anuncios y contenidos. Se puede obtener la percepción sobre el público que ha visto los anuncios y contenidos. Dichos datos pueden usarse para desarrollar o mejorar la experiencia del usuario, sistemas y software.

Al hacer clic en ‘Estoy De Acuerdo’ usted permitirá el uso de las cookies, identificadores de dispositivo, balizas web u otras tecnologías similares indicadas. Su configuración puede cambiarse desde el navegador de su dispositivo.

Para ciertos fines, los intereses legítimos pueden ser considerados por encima del consentimiento. Puede leer más sobre ello en nuestra Política de Privacidad y Cookies.